Find Starlink 3715

NORAD ID: 52127 Int'l Des: 2022-029 Owner: SPXS Country: US Constellation: starlink operational
LEOCIRCULAR

現在のビュー

3D地球を読み込み中...

Starlink 3715について

説明を読み込み中...

次回通過

Passes for default location (London). Set your location on the main map for personalized predictions.

高度履歴

Loading altitude history...

軌道要素

1 52127U 22029AR 26150.95633116 -.00001409 00000-0 -70435-4 0 9999
2 52127 53.1937 59.8018 0001179 100.5780 259.5345 15.08842903233345
Epoch: May 30, 2026 • Age: 15 hours

現在のステータス

高度 550.1 km
速度 7.59 km/s
衛星直下点 -32.14°S, 162.17°E
打ち上げ日 Mar 19, 2022
運用期間 4.1 years
タイプ internet

技術仕様

分類 Payload
質量 297.00 kg
乾燥質量 275.00 kg
総質量 297.00 kg
長さ 0.20 m
直径 2.80 m
スパン 9.00 m
形状 Box + pan
製造者 SPXS
バスタイプ Starlink
フェーズステータス In Orbit
所有者/国 SPXS/US

Most Searched